Weather History for PAGS - December, 2011

Change the Weather History Date:

Monday, December 12, 2011

  Actual Average Record
Temperature  
Mean Temperature 36 °F -  
Max Temperature 39 °F 35 °F 48 °F (2002)
Min Temperature 33 °F 26 °F -8 °F (1955)
Degree Days  
Heating Degree Days 29    
Moisture  
Dew Point 32 °F    
Average Humidity 83    
Maximum Humidity 93    
Minimum Humidity 70    
Precipitation  
Precipitation 0.00 in - - ()
Sea Level Pressure  
Sea Level Pressure 29.72 in    
Wind  
Wind Speed 15 mph (SSE)    
Max Wind Speed 30 mph    
Max Gust Speed 36 mph    
Visibility 9 miles    
Events      
Averages and records for this station are not official NWS values.
T = Trace of Precipitation, MM = Missing Value Source: NWS Daily Summary

Daily Weather History Graph

Daily Weather History Graph

Search for Another Location

Airport or City:

Trip Planner

Search our weather history database for the weather conditions in past years. The results will help you decide how hot, cold, wet, or windy it might be!

Date:

Astronomy

Dec. 12, 2011 Rise Set
Actual Time 8:42 AM AKST 3:10 PM AKST
Civil Twilight 7:50 AM AKST 4:02 PM AKST
Nautical Twilight 6:57 AM AKST 4:55 PM AKST
Astronomical Twilight 6:08 AM AKST 5:44 PM AKST
Moon 5:45 PM AKST (12/12) 10:06 AM AKST (12/12)
Length of Visible Light 8h 12m
Length of Day
6h 27m
Waning Gibbous, 95% of the Moon is Illuminated
Dec 12
Waning Gibbous
Dec 17
Last Quarter
Dec 24
New
Dec 31
First Quarter
Jan 8
Full

Hourly Weather History & Observations

Time (AKST) Temp. Windchill Dew Point Humidity Pressure Visibility Wind Dir Wind Speed Gust Speed Precip Events Conditions
12:16 AM 35.6 °F 23.2 °F 32.0 °F 87% 29.73 in 5.0 mi SE 26.5 mph 34.5 mph N/A   Overcast
12:36 AM 35.6 °F 22.5 °F 32.0 °F 87% 29.72 in 10.0 mi SE 29.9 mph 35.7 mph N/A   Overcast
12:56 AM 35.6 °F 23.4 °F 32.0 °F 87% 29.72 in 8.0 mi SE 25.3 mph 35.7 mph N/A   Overcast
1:16 AM 35.6 °F 24.0 °F 32.0 °F 87% 29.72 in 9.0 mi SE 23.0 mph 29.9 mph N/A   Overcast
1:36 AM 35.6 °F 23.4 °F 32.0 °F 87% 29.71 in 9.0 mi SE 25.3 mph 31.1 mph N/A   Overcast
1:56 AM 35.6 °F 25.2 °F 32.0 °F 87% 29.72 in 5.0 mi SSE 18.4 mph - N/A   Overcast
2:16 AM 35.6 °F 25.9 °F 32.0 °F 87% 29.71 in 5.0 mi SE 16.1 mph 21.9 mph N/A   Overcast
2:36 AM 35.6 °F 25.2 °F 32.0 °F 87% 29.71 in 10.0 mi SE 18.4 mph 24.2 mph N/A   Overcast
2:56 AM 35.6 °F 26.6 °F 33.8 °F 93% 29.70 in 10.0 mi SE 13.8 mph - N/A   Overcast
3:16 AM 35.6 °F 28.0 °F 33.8 °F 93% 29.69 in 8.0 mi SSE 10.4 mph - N/A   Mostly Cloudy
3:36 AM 35.6 °F 27.1 °F 33.8 °F 93% 29.69 in 10.0 mi SE 12.7 mph 17.3 mph N/A   Mostly Cloudy
3:56 AM 35.6 °F 26.2 °F 33.8 °F 93% 29.68 in 10.0 mi SSE 15.0 mph - N/A   Mostly Cloudy
4:16 AM 37.4 °F 31.4 °F 33.8 °F 87% 29.70 in 10.0 mi South 8.1 mph - N/A   Mostly Cloudy
4:36 AM 37.4 °F 30.3 °F 33.8 °F 87% 29.69 in 8.0 mi South 10.4 mph - N/A   Overcast
4:56 AM 39.2 °F 33.6 °F 33.8 °F 81% 29.68 in 10.0 mi South 8.1 mph - N/A   Overcast
5:16 AM 39.2 °F 33.6 °F 33.8 °F 81% 29.68 in 10.0 mi South 8.1 mph - N/A   Overcast
5:36 AM 37.4 °F 30.8 °F 33.8 °F 87% 29.68 in 10.0 mi SE 9.2 mph - N/A   Mostly Cloudy
5:56 AM 37.4 °F - 33.8 °F 87% 29.68 in 10.0 mi Calm Calm - N/A   Mostly Cloudy
6:16 AM 37.4 °F 31.4 °F 33.8 °F 87% 29.67 in 10.0 mi SE 8.1 mph - N/A   Mostly Cloudy
6:36 AM 37.4 °F 32.8 °F 33.8 °F 87% 29.69 in 9.0 mi SW 5.8 mph - N/A   Mostly Cloudy
6:56 AM 39.2 °F 32.5 °F 33.8 °F 81% 29.68 in 10.0 mi SSW 10.4 mph 19.6 mph N/A   Mostly Cloudy
7:16 AM 37.4 °F 34.9 °F 33.8 °F 87% 29.68 in 10.0 mi SE 3.5 mph - N/A   Scattered Clouds
7:36 AM 39.2 °F 35.0 °F 32.0 °F 75% 29.69 in 10.0 mi SSE 5.8 mph - N/A   Mostly Cloudy
7:56 AM 37.4 °F 32.8 °F 30.2 °F 75% 29.69 in 10.0 mi SSW 5.8 mph - N/A   Mostly Cloudy
8:16 AM 37.4 °F 31.4 °F 32.0 °F 81% 29.69 in 10.0 mi SSE 8.1 mph - N/A   Overcast
8:36 AM 35.6 °F - 32.0 °F 87% 29.70 in 6.0 mi Calm Calm - N/A   Overcast
8:56 AM 37.4 °F 30.3 °F 33.8 °F 87% 29.69 in 10.0 mi South 10.4 mph - N/A   Overcast
9:16 AM 39.2 °F 34.2 °F 33.8 °F 81% 29.70 in 10.0 mi SSE 6.9 mph - N/A   Mostly Cloudy
9:36 AM 39.2 °F 30.8 °F 33.8 °F 81% 29.72 in 9.0 mi WSW 15.0 mph 18.4 mph N/A   Mostly Cloudy
9:56 AM 37.4 °F 32.1 °F 32.0 °F 81% 29.73 in 10.0 mi ESE 6.9 mph - N/A   Mostly Cloudy
10:16 AM 37.4 °F 29.8 °F 33.8 °F 87% 29.73 in 7.0 mi SSW 11.5 mph 18.4 mph N/A   Overcast
10:36 AM 39.2 °F 32.0 °F 33.8 °F 81% 29.72 in 10.0 mi SSW 11.5 mph 16.1 mph N/A   Mostly Cloudy
10:56 AM 39.2 °F 32.0 °F 32.0 °F 75% 29.72 in 10.0 mi South 11.5 mph 17.3 mph N/A   Scattered Clouds
11:16 AM 39.2 °F 33.6 °F 32.0 °F 75% 29.72 in 10.0 mi SSE 8.1 mph - N/A   Mostly Cloudy
11:36 AM 37.4 °F 33.8 °F 32.0 °F 81% 29.73 in 10.0 mi ESE 4.6 mph - N/A   Overcast
11:56 AM 39.2 °F 35.0 °F 32.0 °F 75% 29.74 in 10.0 mi ESE 5.8 mph - N/A   Overcast
12:16 PM 39.2 °F 32.0 °F 32.0 °F 75% 29.74 in 10.0 mi SE 11.5 mph - N/A   Overcast
12:36 PM 39.2 °F 32.5 °F 32.0 °F 75% 29.76 in 10.0 mi South 10.4 mph 18.4 mph N/A   Overcast
12:56 PM 39.2 °F 33.0 °F 30.2 °F 70% 29.75 in 10.0 mi South 9.2 mph - N/A   Mostly Cloudy
1:16 PM 37.4 °F 31.4 °F 32.0 °F 81% 29.75 in 10.0 mi SE 8.1 mph - N/A   Overcast
1:36 PM 39.2 °F 33.6 °F 30.2 °F 70% 29.75 in 10.0 mi SSE 8.1 mph - N/A   Mostly Cloudy
1:56 PM 37.4 °F 30.8 °F 30.2 °F 75% 29.74 in 10.0 mi SE 9.2 mph - N/A   Mostly Cloudy
2:16 PM 37.4 °F 27.5 °F 30.2 °F 75% 29.76 in 3.0 mi SW 18.4 mph 23.0 mph N/A   Overcast
2:36 PM 33.8 °F 27.0 °F 30.2 °F 87% 29.76 in 5.0 mi SSW 8.1 mph - N/A   Mostly Cloudy
2:56 PM 35.6 °F 29.2 °F 32.0 °F 87% 29.77 in 10.0 mi South 8.1 mph - N/A   Mostly Cloudy
3:16 PM 35.6 °F 29.2 °F 32.0 °F 87% 29.77 in 10.0 mi SSE 8.1 mph - N/A   Overcast
3:36 PM 35.6 °F 29.2 °F 32.0 °F 87% 29.76 in 10.0 mi ESE 8.1 mph - N/A   Overcast
3:56 PM 35.6 °F 26.6 °F 30.2 °F 81% 29.76 in 10.0 mi ESE 13.8 mph 18.4 mph N/A   Overcast
4:16 PM 35.6 °F 28.6 °F 32.0 °F 87% 29.77 in 10.0 mi SE 9.2 mph - N/A   Overcast
4:36 PM 35.6 °F 28.6 °F 32.0 °F 87% 29.78 in 10.0 mi South 9.2 mph 16.1 mph N/A   Overcast
4:56 PM 35.6 °F 29.2 °F 32.0 °F 87% 29.78 in 10.0 mi SE 8.1 mph - N/A   Overcast
5:16 PM 35.6 °F 30.7 °F 30.2 °F 81% 29.78 in 10.0 mi SE 5.8 mph - N/A   Overcast
5:36 PM 35.6 °F 29.9 °F 30.2 °F 81% 29.78 in 10.0 mi SE 6.9 mph - N/A   Overcast
5:56 PM 35.6 °F 28.6 °F 30.2 °F 81% 29.77 in 10.0 mi SE 9.2 mph - N/A   Overcast
6:16 PM 35.6 °F 27.5 °F 32.0 °F 87% 29.77 in 10.0 mi SE 11.5 mph - N/A   Overcast
6:36 PM 35.6 °F 27.5 °F 32.0 °F 87% 29.78 in 8.0 mi SE 11.5 mph - N/A   Overcast
6:56 PM 35.6 °F 27.1 °F 32.0 °F 87% 29.78 in 10.0 mi SE 12.7 mph - N/A   Overcast
7:16 PM 35.6 °F 29.2 °F 32.0 °F 87% 29.78 in 10.0 mi SSE 8.1 mph - N/A   Overcast
7:36 PM 35.6 °F 30.7 °F 32.0 °F 87% 29.78 in 10.0 mi SSE 5.8 mph - N/A   Mostly Cloudy
7:56 PM 35.6 °F 31.7 °F 30.2 °F 81% 29.79 in 10.0 mi East 4.6 mph - N/A   Overcast
8:16 PM 35.6 °F 26.2 °F 32.0 °F 87% 29.79 in 10.0 mi SE 15.0 mph - N/A   Overcast
8:36 PM 35.6 °F 27.1 °F 32.0 °F 87% 29.79 in 10.0 mi ESE 12.7 mph - N/A   Overcast
8:56 PM 35.6 °F 28.0 °F 32.0 °F 87% 29.80 in 10.0 mi SE 10.4 mph - N/A   Mostly Cloudy
9:16 PM 35.6 °F 29.9 °F 32.0 °F 87% 29.80 in 10.0 mi East 6.9 mph - N/A   Mostly Cloudy
9:36 PM 35.6 °F 29.2 °F 32.0 °F 87% 29.80 in 10.0 mi ESE 8.1 mph - N/A   Overcast
9:56 PM 35.6 °F 29.9 °F 32.0 °F 87% 29.80 in 10.0 mi ESE 6.9 mph - N/A   Overcast
10:16 PM 35.6 °F 28.0 °F 32.0 °F 87% 29.80 in 10.0 mi ESE 10.4 mph - N/A   Overcast
10:36 PM 35.6 °F 28.6 °F 32.0 °F 87% 29.81 in 10.0 mi SE 9.2 mph - N/A   Overcast
10:56 PM 35.6 °F 29.9 °F 33.8 °F 93% 29.82 in 10.0 mi SE 6.9 mph - N/A   Overcast
11:16 PM 37.4 °F 32.8 °F 33.8 °F 87% 29.82 in 10.0 mi SW 5.8 mph - N/A   Overcast
11:36 PM 35.6 °F 29.2 °F 30.2 °F 81% 29.82 in 10.0 mi South 8.1 mph - N/A   Mostly Cloudy
11:56 PM 35.6 °F 29.2 °F 30.2 °F 81% 29.83 in 10.0 mi SSE 8.1 mph - N/A   Overcast